Regional Weather Roundup
Issued by NWS

Home | Current Version | Previous Version | Text Only | Print | Product List | Glossary On
Versions: 1 2 3 4 5 6 7 8 9 10 11 12 13 14 15 16 17 18 19 20 21 22 23 24 25 26 27 28 29 30 31 32 33 34 35 36 37 38 39 40 41 42 43 44 45 46 47 48 49 50
000
ASUS45 KBOU 191207
RWRCO

WEATHER ROUNDUP FOR COLORADO
NATIONAL WEATHER SERVICE DENVER/BOULDER CO
600 AM MDT FRI SEP 19 2014

NOTE: "FAIR" INDICATES FEW OR NO CLOUDS BELOW 12000 FEET WITH NO
SIGNIFICANT WEATHER AND/OR OBSTRUCTIONS TO VISIBILITY.

COZ001>005-013-030-031-191300-
...NORTHWEST COLORADO...

CITY           SKY/WX    TMP DP  RH WIND       PRES   REMARKS
CRAIG          PTCLDY    43  38  82 SW7       30.13R
HAYDEN         PTCLDY    48  37  66 W5        30.14R
MEEKER         CLEAR     49  40  71 CALM      30.13R
MOUNT WERNER   NOT AVBL
STEAMBOAT SPGS PTCLDY    46  40  82 N3        30.14R
WALDEN         MOCLDY    41  32  70 SE3       30.20S
$$

COZ006>008-011-191300-
...WEST CENTRAL VALLEYS...

CITY           SKY/WX    TMP DP  RH WIND       PRES   REMARKS
GRAND JUNCTION CLEAR     54  42  64 SE5       30.00R
MONTROSE       CLEAR     55  43  63 S7        30.08R
EAGLE          PTCLDY    46  39  76 CALM      30.17R
RIFLE          CLEAR     51  42  71 SE3       30.07R
DELTA          CLEAR     60  42  52 CALM      30.05R
NUCLA          CLEAR     54  39  58 SE8       30.11S
$$

COZ017>023-064>068-191300-
...SOUTHWEST COLORADO...

CITY           SKY/WX    TMP DP  RH WIND       PRES   REMARKS
DURANGO        CLEAR     50  41  71 N6        30.16R
CORTEZ         CLEAR     48  43  82 E6        30.09R
PAGOSA SPRINGS CLEAR     48  39  72 CALM      30.23S
TELLURIDE      NOT AVBL
WOLF CREEK PAS CLEAR     39  39 100 SW12      30.47S
$$

COZ009-010-012-014-032>034-037-058>063-191300-
...CENTRAL COLORADO...

CITY           SKY/WX    TMP DP  RH WIND       PRES   REMARKS
ASPEN          CLEAR     48  36  63 S6        30.20R
BUENA VISTA    CLEAR     45  31  57 CALM      30.24R
COPPER MTN     NOT AVBL
BERTHOUD PASS  FAIR      41  37  87 NW16      30.52R
COTTONWOOD PAS CLEAR     55  28  35 NW3       30.34R
GUNNISON       CLEAR     41  32  70 NW3       30.26R
KREMMLING      PTCLDY    41  34  75 CALM      30.22R
LEADVILLE      CLEAR     38  27  64 N3        30.34S
MONARCH PASS   CLEAR     43  32  65 SW10      30.58R
SALIDA         CLEAR     51  32  48 NW5       30.29R
SUNLIGHT       CLEAR     54  36  50 CALM      30.42S
WILKERSON PASS NOT AVBL
$$

COZ069>075-191300-
...SAN LUIS VALLEY/SANGRE DE CRISTO MOUNTAINS...

CITY           SKY/WX    TMP DP  RH WIND       PRES   REMARKS
ALAMOSA        PTCLDY    36  31  82 CALM      30.20R
LA VETA PASS   PTCLDY    45  37  76 SW5       30.34R
SAGUACHE       NOT AVBL
$$

COZ035-036-038>040-191300-
...NORTHERN COLORADO FRONT RANGE...

CITY           SKY/WX    TMP DP  RH WIND       PRES   REMARKS
DENVER INTL AP PTCLDY    67  32  27 S15       29.96R
DMNS CITY PARK   N/A     64  33  31 S7        29.97R
AURORA         CLEAR     64  36  34 S15       29.99R
FRONT RANGE AP NOT AVBL
ERIE MUNI ARPT CLEAR     51  40  66 CALM      29.95R
BOULDER MUN AP CLEAR     55  41  58 SW3       29.96R
CENTENNIAL     CLEAR     60  35  39 S8        30.01R
BROOMFIELD     CLEAR     64  34  32 SW5       29.99R
FORT COLLINS   PTCLDY    57  43  58 CALM      29.96R
LONGMONT       PTCLDY    53  44  71 CALM      29.96R
$$

COZ041-046-047-076>085-087-088-191300-
...PIKES PEAK/PALMER DIVIDE AND SOUTHERN FOOTHILLS...

CITY           SKY/WX    TMP DP  RH WIND       PRES   REMARKS
COLO. SPRINGS  CLEAR     52  43  71 N7        30.08R
A. F. ACADEMY  CLEAR     45  41  85 N9        30.09S
ELLICOTT       NOT AVBL
FALCON         CLEAR     51  43  73 W3        30.12S
FORT CARSON    CLEAR     54  41  62 NW10      30.04S
LIMON          CLEAR     56  46  69 SW5       30.02R
MONUMENT HILL  CLEAR     55  37  50 SW6       30.10S
TRINIDAD       CLEAR     59  52  77 SW15      30.05S
$$

COZ042>045-048>051-090-091-191300-
...NORTHEAST COLORADO...

CITY           SKY/WX    TMP DP  RH WIND       PRES   REMARKS
GREELEY ARPT   PTCLDY    50  39  66 NW6       29.94R
AKRON          CLEAR     65  47  52 S13G22    29.94S
BURLINGTON     CLEAR     60  57  89 SW10      29.96S
WRAY           CLEAR     56  56 100 SW6       29.91S
STERLING       CLEAR     59  55  88 CALM      29.90R
HOLYOKE        CLEAR     61  55  82 SW7       29.89S
FORT MORGAN    CLEAR     57  46  66 W3        29.93R
$$

COZ086-089-092>099-191300-
...SOUTHEAST COLORADO...

CITY           SKY/WX    TMP DP  RH WIND       PRES   REMARKS
PUEBLO         CLEAR     49  44  83 NW3       30.00R
LA JUNTA       CLEAR     55  53  93 CALM      29.97S
LAMAR          CLEAR     52  51  97 S9        29.95S
SPRINGFIELD      N/A     62  61  96 S17G24    30.02R
$$


USA.gov is the U.S. government's official web portal to all federal, state and local government web resources and services.